AEROCUBE 7C (43043 NORAD) Tracking and Keplerian Element Data

This shows tracking and keplerian element data for the satellite.

Feedback or suggestion? Click here.




ElementValue
Catalog43043
NameAEROCUBE 7C
Epoch Orbit5741
Epoch Day348.91640558
Epoch Year2018
RAAN240.3425
Inclination51.6384
Eccentricity0.0004743
Argument of Perigee194.0402
Mean Anonmoly166.0452
Mean Motion15.39986113
Decay Rate2.634E-05
L11 43043U 17071G 18348.91640558 .00002634 00000-0 74917-4 0 9999
L22 43043 51.6384 240.3425 0004743 194.0402 166.0452 15.39986113 57418

Live tracking and technical data element details for AEROCUBE 7C (NORAD 43043). AEROCUBE 7C can be tracked NOW for your location showing map with azimuth and elevation plus other details from your city location.

Track the satellite on the map from your city or location and see movement details for azimuth, elevation, latitude, longitude, range, height, and movement on the map or in text.







IsCatalogInMostPopularTable: catalog: 43043, numindb: 145
Update: records affected: 1



GetName: 43043 AEROCUBE 7C

Hit Count: updated at: Sat, 15 Dec 2018 14:34:13 GMT